TimeMDT,TemperatureF,Dew PointF,Humidity,Sea Level PressureIn,VisibilityMPH,Wind Direction,Wind SpeedMPH,Gust SpeedMPH,PrecipitationIn,Events,Conditions,WindDirDegrees,DateUTC
12:53 AM,15.1,10.0,80,30.29,10.0,North,4.6,-,N/A,,Overcast,10,2013-03-24 06:53:00
1:53 AM,7.0,5.0,92,30.30,10.0,West,6.9,-,N/A,,Scattered Clouds,270,2013-03-24 07:53:00
2:53 AM,6.1,1.9,83,30.27,10.0,WNW,8.1,-,N/A,,Clear,290,2013-03-24 08:53:00
3:53 AM,1.9,-0.9,88,30.26,10.0,West,9.2,-,N/A,,Clear,280,2013-03-24 09:53:00
4:53 AM,3.9,1.0,88,30.25,10.0,WNW,9.2,-,N/A,,Clear,290,2013-03-24 10:53:00
5:53 AM,1.0,-2.9,83,30.26,10.0,West,6.9,-,N/A,,Clear,270,2013-03-24 11:53:00
6:53 AM,3.9,-0.0,84,30.26,10.0,West,6.9,-,N/A,,Clear,280,2013-03-24 12:53:00
7:53 AM,9.0,3.9,80,30.26,10.0,West,4.6,-,N/A,,Clear,270,2013-03-24 13:53:00
8:53 AM,21.0,12.9,71,30.22,10.0,NNW,13.8,-,N/A,,Clear,330,2013-03-24 14:53:00
9:53 AM,27.0,9.0,47,30.20,10.0,NNW,20.7,25.3,N/A,,Partly Cloudy,330,2013-03-24 15:53:00
10:53 AM,28.9,3.9,35,30.19,10.0,NNW,26.5,35.7,N/A,,Clear,340,2013-03-24 16:53:00
11:53 AM,28.0,6.1,39,30.19,10.0,NNW,24.2,32.2,N/A,,Mostly Cloudy,330,2013-03-24 17:53:00
12:53 PM,28.0,3.9,36,30.19,10.0,NW,23.0,32.2,N/A,,Overcast,320,2013-03-24 18:53:00
1:53 PM,28.0,3.9,36,30.21,10.0,NNW,24.2,36.8,N/A,,Overcast,330,2013-03-24 19:53:00
2:53 PM,25.0,1.9,37,30.22,10.0,NNW,29.9,41.4,N/A,,Overcast,330,2013-03-24 20:53:00
3:53 PM,23.0,10.9,60,30.27,8.0,North,25.3,32.2,N/A,,Mostly Cloudy,10,2013-03-24 21:53:00
3:59 PM,21.2,14.0,74,30.09,1.5,North,19.6,29.9,0.00,Snow,Light Snow,10,2013-03-24 21:59:00
4:01 PM,21.2,14.0,74,30.10,1.0,NNE,18.4,29.9,0.00,Snow,Light Snow,20,2013-03-24 22:01:00
4:04 PM,19.4,14.0,80,30.10,0.8,NNE,16.1,24.2,0.00,Snow,Light Snow,20,2013-03-24 22:04:00
4:11 PM,21.2,14.0,74,30.10,1.0,North,12.7,25.3,0.00,Snow,Light Snow,360,2013-03-24 22:11:00
4:13 PM,21.2,12.2,68,30.10,1.8,North,16.1,25.3,0.00,Snow,Light Snow,350,2013-03-24 22:13:00
4:16 PM,23.0,12.2,63,30.10,3.0,North,17.3,23.0,0.00,Snow,Light Snow,350,2013-03-24 22:16:00
4:27 PM,21.2,10.4,63,30.10,9.0,North,19.6,24.2,0.00,Snow,Light Snow,360,2013-03-24 22:27:00
4:53 PM,25.0,9.0,51,30.27,10.0,North,24.2,28.8,0.00,,Mostly Cloudy,360,2013-03-24 22:53:00
4:59 PM,21.2,12.2,68,30.11,1.8,North,21.9,28.8,0.00,Snow,Light Snow,10,2013-03-24 22:59:00
5:10 PM,19.4,12.2,74,30.12,4.0,North,17.3,-,0.00,Snow,Light Snow,360,2013-03-24 23:10:00
5:14 PM,19.4,12.2,74,30.12,2.5,North,16.1,-,0.00,Snow,Light Snow,360,2013-03-24 23:14:00
5:27 PM,19.4,10.4,68,30.12,9.0,North,15.0,-,0.00,,Mostly Cloudy,350,2013-03-24 23:27:00
5:35 PM,21.2,10.4,63,30.12,10.0,North,16.1,-,0.00,,Scattered Clouds,350,2013-03-24 23:35:00
5:53 PM,21.0,10.9,65,30.32,10.0,North,13.8,23.0,0.00,,Partly Cloudy,350,2013-03-24 23:53:00
6:53 PM,19.0,7.0,59,30.33,10.0,North,13.8,-,N/A,,Clear,350,2013-03-25 00:53:00
7:53 PM,14.0,7.0,74,30.35,10.0,North,8.1,-,N/A,,Clear,350,2013-03-25 01:53:00
8:53 PM,12.9,6.1,74,30.34,10.0,NW,9.2,-,N/A,,Scattered Clouds,320,2013-03-25 02:53:00
9:53 PM,12.0,5.0,73,30.35,10.0,NNW,8.1,-,N/A,,Clear,330,2013-03-25 03:53:00
10:53 PM,12.0,7.0,80,30.35,10.0,NNW,9.2,-,N/A,,Mostly Cloudy,330,2013-03-25 04:53:00
11:27 PM,10.4,6.8,85,30.22,10.0,NNW,8.1,-,N/A,,Mostly Cloudy,330,2013-03-25 05:27:00
11:53 PM,12.0,7.0,80,30.36,10.0,NNW,10.4,-,N/A,,Mostly Cloudy,340,2013-03-25 05:53:00